FW8155 Weather Reports


time (UTC)temp
C
wind
direction
speed
KPH
gust
KPH
rain 1hr
cm
rain 24hr
cm
rain mn
cm
humidity
%
barometer
mb
20260505011721 13 49 29.0 33.8 0.00 0.00 0.00 42 1008.1
20260505011219 13 24 17.7 38.6 0.00 0.00 0.00 42 1008.1
20260505010714 13 37 16.1 32.2 0.00 0.00 0.00 42 1008.0
20260505010211 13 52 35.4 35.4 0.00 0.00 0.00 42 1007.9
20260505005707 14 31 17.7 32.2 0.00 0.00 0.00 41 1007.8
20260505005205 14 57 16.1 37.0 0.00 0.00 0.00 41 1007.9
20260505004702 14 32 29.0 41.8 0.00 0.00 0.00 42 1007.4
20260505004158 14 31 11.3 38.6 0.00 0.00 0.00 41 1007.3
20260505003656 15 29 17.7 32.2 0.00 0.00 0.00 41 1007.3
20260505003153 15 42 24.1 38.6 0.00 0.00 0.00 41 1007.5
20260505002649 15 35 29.0 38.6 0.00 0.00 0.00 41 1007.2
20260505002148 15 62 20.9 37.0 0.00 0.00 0.00 40 1007.0
20260505001644 15 84 17.7 25.7 0.00 0.00 0.00 40 1007.4
20260505001142 15 48 17.7 33.8 0.00 0.00 0.00 40 1007.3
20260505000638 15 27 27.4 37.0 0.00 0.00 0.00 39 1007.3
20260505000137 16 49 22.5 33.8 0.00 0.00 0.00 39 1007.2
20260504235632 16 26 12.9 27.4 0.00 0.00 0.00 38 1007.4
20260504235129 16 57 6.4 27.4 0.00 0.00 0.00 38 1007.4
20260504234626 16 30 22.5 32.2 0.00 0.00 0.00 38 1007.2
20260504234124 16 47 25.7 25.7 0.00 0.00 0.00 37 1007.3
20260504233619 16 43 12.9 29.0 0.00 0.00 0.00 37 1007.4
20260504233115 16 32 24.1 32.2 0.00 0.00 0.00 37 1007.3
20260504232614 16 57 11.3 32.2 0.00 0.00 0.00 37 1007.7
20260504232110 17 20 14.5 25.7 0.00 0.00 0.00 36 1007.5
20260504231606 16 45 14.5 27.4 0.00 0.00 0.00 36 1007.3
20260504231103 17 40 8.0 22.5 0.00 0.00 0.00 36 1007.3
20260504230559 17 61 11.3 22.5 0.00 0.00 0.00 35 1007.1
20260504230058 17 13 19.3 25.7 0.00 0.00 0.00 36 1007.2
20260504225555 17 35 17.7 24.1 0.00 0.00 0.00 36 1007.2
20260504225052 16 32 19.3 32.2 0.00 0.00 0.00 36 1007.0
20260504224549 17 27 22.5 35.4 0.00 0.00 0.00 35 1006.7
20260504224046 17 62 11.3 35.4 0.00 0.00 0.00 35 1006.7
20260504223543 17 45 17.7 32.2 0.00 0.00 0.00 35 1006.7
20260504223038 17 30 19.3 32.2 0.00 0.00 0.00 35 1006.6
20260504222536 17 48 20.9 30.6 0.00 0.00 0.00 35 1006.7
20260504222033 17 63 25.7 33.8 0.00 0.00 0.00 34 1006.7
20260504221530 17 39 17.7 33.8 0.00 0.00 0.00 34 1006.6
20260504221027 17 25 38.6 38.6 0.00 0.00 0.00 34 1006.9
20260504220523 17 34 25.7 32.2 0.00 0.00 0.00 34 1006.5
20260504220021 17 21 27.4 37.0 0.00 0.00 0.00 34 1006.9
20260504215517 17 26 22.5 37.0 0.00 0.00 0.00 34 1006.9
20260504215014 17 40 22.5 37.0 0.00 0.00 0.00 34 1006.7
20260504214510 18 37 35.4 37.0 0.00 0.00 0.00 33 1006.6
20260504214006 18 8 17.7 48.3 0.00 0.00 0.00 33 1006.4
20260504213503 18 56 14.5 32.2 0.00 0.00 0.00 33 1006.6
20260504213001 18 28 20.9 37.0 0.00 0.00 0.00 33 1006.5
20260504212456 18 20 17.7 38.6 0.00 0.00 0.00 33 1006.5
20260504211954 18 358 17.7 35.4 0.00 0.00 0.00 32 1006.5
20260504211450 18 48 11.3 33.8 0.00 0.00 0.00 32 1006.6
20260504210948 18 26 19.3 41.8 0.00 0.00 0.00 32 1006.6
20260504210444 18 62 27.4 32.2 0.00 0.00 0.00 31 1006.3
20260504205941 18 31 17.7 37.0 0.00 0.00 0.00 32 1006.5
20260504205439 18 32 20.9 38.6 0.00 0.00 0.00 32 1006.5
20260504204937 18 43 29.0 45.1 0.00 0.00 0.00 31 1006.6
20260504204435 19 15 27.4 40.2 0.00 0.00 0.00 31 1006.7
20260504203934 18 28 27.4 35.4 0.00 0.00 0.00 32 1006.7
20260504203431 18 18 22.5 35.4 0.00 0.00 0.00 31 1006.5
20260504202927 19 39 22.5 27.4 0.00 0.00 0.00 31 1006.4
20260504202424 20 28 35.4 38.6 0.00 0.00 0.00 31 1006.5
20260504201920 20 47 14.5 35.4 0.00 0.00 0.00 30 1006.5
20260504201418 20 11 17.7 43.5 0.00 0.00 0.00 30 1006.3
20260504200915 21 36 19.3 38.6 0.00 0.00 0.00 30 1006.5
20260504200412 20 25 22.5 40.2 0.00 0.00 0.00 31 1006.3
20260504195909 20 24 32.2 45.1 0.00 0.00 0.00 30 1006.4
20260504195404 20 29 19.3 43.5 0.00 0.00 0.00 30 1006.3
20260504194901 20 53 27.4 35.4 0.00 0.00 0.00 30 1006.2
20260504194357 21 23 25.7 35.4 0.00 0.00 0.00 30 1006.1
20260504193853 20 58 17.7 41.8 0.00 0.00 0.00 30 1006.2
20260504193350 19 28 14.5 27.4 0.00 0.00 0.00 32 1006.4
20260504192849 20 15 25.7 38.6 0.00 0.00 0.00 31 1006.3
20260504192346 21 23 27.4 45.1 0.00 0.00 0.00 30 1006.5
20260504191845 21 26 29.0 45.1 0.00 0.00 0.00 30 1006.4
20260504191342 21 14 20.9 40.2 0.00 0.00 0.00 30 1006.5
20260504190838 21 2 20.9 38.6 0.00 0.00 0.00 30 1006.4
20260504190333 21 33 33.8 33.8 0.00 0.00 0.00 31 1006.6
20260504185830 20 19 32.2 38.6 0.00 0.00 0.00 32 1006.6
20260504185327 21 36 20.9 43.5 0.00 0.00 0.00 32 1006.3
20260504184823 21 42 38.6 43.5 0.00 0.00 0.00 32 1006.4
20260504184319 21 19 29.0 46.7 0.00 0.00 0.00 32 1006.1
20260504183815 21 70 11.3 27.4 0.00 0.00 0.00 30 1006.1
20260504183313 20 39 22.5 33.8 0.00 0.00 0.00 31 1006.2
20260504182811 21 66 17.7 37.0 0.00 0.00 0.00 30 1006.1
20260504182308 21 34 16.1 22.5 0.00 0.00 0.00 28 1006.1
20260504181805 20 50 16.1 29.0 0.00 0.00 0.00 29 1006.2
20260504181302 20 75 17.7 35.4 0.00 0.00 0.00 31 1006.1
20260504180801 20 37 16.1 27.4 0.00 0.00 0.00 30 1006.1
20260504180259 20 23 20.9 37.0 0.00 0.00 0.00 30 1006.2
20260504175757 21 67 17.7 40.2 0.00 0.00 0.00 29 1006.0
20260504175253 20 38 17.7 38.6 0.00 0.00 0.00 31 1005.8
20260504174751 20 19 20.9 33.8 0.00 0.00 0.00 31 1006.1
20260504174249 22 75 4.8 9.7 0.00 0.00 0.00 21 1006.1
20260504173745 23 9 8.0 11.3 0.00 0.00 0.00 20 1006.1
20260504173242 22 127 0.0 8.0 0.00 0.00 0.00 21 1006.1
20260504172739 23 122 11.3 14.5 0.00 0.00 0.00 21 1005.8
20260504172236 22 143 8.0 14.5 0.00 0.00 0.00 22 1006.0
20260504171732 22 73 4.8 12.9 0.00 0.00 0.00 21 1005.7
20260504171229 21 157 11.3 12.9 0.00 0.00 0.00 23 1005.8
20260504170726 22 83 0.0 8.0 0.00 0.00 0.00 22 1005.8
20260504170223 21 0 6.4 9.7 0.00 0.00 0.00 23 1006.3
20260504160142 21 39 4.8 8.0 0.00 0.00 0.00 26 1006.3
20260504151109 20 233 3.2 4.8 0.00 0.00 0.00 30 1006.1
20260504150607 20 217 4.8 8.0 0.00 0.00 0.00 30 1006.4
20260504150103 19 201 3.2 9.7 0.00 0.00 0.00 32 1006.3
20260504141032 15 352 4.8 11.3 0.00 0.00 0.00 38 1007.0
20260504140529 15 332 3.2 14.5 0.00 0.00 0.00 39 1006.5
20260504130453 8 240 8.0 8.0 0.00 0.00 0.00 54 1006.5
20260504110340 5 331 6.4 8.0 0.00 0.00 0.00 62 1006.1
20260504100257 8 227 4.8 8.0 0.00 0.00 0.00 58 1006.4
20260504081651 7 260 3.2 3.2 0.00 0.00 0.00 60 1007.2
20260504081147 7 237 3.2 4.8 0.00 0.00 0.00 60 1007.2
20260504080644 7 233 3.2 3.2 0.00 0.00 0.00 62 1007.4
20260504080140 7 235 0.0 4.8 0.00 0.00 0.00 61 1007.4
20260504070108 8 172 0.0 1.6 0.00 0.00 0.00 61 1008.2
20260504050456 9 54 0.0 3.2 0.00 0.00 0.00 58 1008.9
20260504045953 9 26 4.8 4.8 0.00 0.00 0.00 58 1009.0
20260504045449 9 39 4.8 4.8 0.00 0.00 0.00 57 1008.9
20260504044945 9 32 3.2 4.8 0.00 0.00 0.00 57 1008.9
20260504044443 10 36 3.2 4.8 0.00 0.00 0.00 57 1008.9
20260504043940 10 25 4.8 4.8 0.00 0.00 0.00 56 1009.2
20260504043437 10 29 4.8 4.8 0.00 0.00 0.00 56 1009.2
20260504042935 10 36 3.2 4.8 0.00 0.00 0.00 56 1009.2
20260504042431 10 36 3.2 4.8 0.00 0.00 0.00 55 1009.5
20260504041928 10 121 3.2 4.8 0.00 0.00 0.00 56 1009.5
20260504041424 10 120 1.6 3.2 0.00 0.00 0.00 56 1009.5
20260504040920 10 74 0.0 3.2 0.00 0.00 0.00 55 1009.2
20260504040418 10 74 0.0 4.8 0.00 0.00 0.00 54 1009.8
20260504035914 10 147 4.8 6.4 0.00 0.00 0.00 54 1009.5
20260504035412 10 123 3.2 6.4 0.00 0.00 0.00 53 1009.7
20260504034908 11 138 4.8 6.4 0.00 0.00 0.00 52 1009.6
20260504034406 11 141 6.4 6.4 0.00 0.00 0.00 52 1009.8
20260504033903 11 129 3.2 4.8 0.00 0.00 0.00 53 1009.9
20260504033400 11 102 3.2 3.2 0.00 0.00 0.00 53 1009.8
20260504032857 11 151 0.0 3.2 0.00 0.00 0.00 53 1009.8
20260504032354 11 99 0.0 1.6 0.00 0.00 0.00 51 1009.7
20260504031850 12 106 0.0 4.8 0.00 0.00 0.00 50 1009.6
20260504031348 12 85 6.4 8.0 0.00 0.00 0.00 49 1009.7
20260504030844 12 43 8.0 9.7 0.00 0.00 0.00 47 1009.6
20260504030342 13 29 8.0 11.3 0.00 0.00 0.00 46 1009.7
20260504025837 13 31 11.3 16.1 0.00 0.00 0.00 46 1009.8
20260504025334 13 49 14.5 16.1 0.00 0.00 0.00 46 1009.7
20260504024831 13 32 11.3 22.5 0.00 0.00 0.00 44 1009.6
20260504024327 14 24 14.5 22.5 0.00 0.00 0.00 43 1009.7
20260504023824 15 36 17.7 19.3 0.00 0.00 0.00 42 1009.8
20260504023321 15 8 17.7 27.4 0.00 0.00 0.00 41 1009.5
20260504022817 15 24 8.0 27.4 0.00 0.00 0.00 41 1009.5
20260504022314 16 36 20.9 32.2 0.00 0.00 0.00 38 1009.6
20260504021810 16 18 27.4 37.0 0.00 0.00 0.00 33 1009.1
20260504021308 16 0 8.0 14.5 0.00 0.00 0.00 31 1009.5
20260504020805 16 330 9.7 9.7 0.00 0.00 0.00 31 1009.1
20260504020302 16 341 6.4 6.4 0.00 0.00 0.00 30 1008.6
20260504015757 16 15 0.0 1.6 0.00 0.00 0.00 31 1008.8
20260504015254 17 98 1.6 3.2 0.00 0.00 0.00 30 1008.5
20260504014750 17 125 3.2 4.8 0.00 0.00 0.00 32 1008.5
20260504014246 17 90 1.6 3.2 0.00 0.00 0.00 30 1008.2
20260504013744 17 0 1.6 3.2 0.00 0.00 0.00 30 1008.3
20260504013242 18 0 0.0 3.2 0.00 0.00 0.00 28 1008.2
20260504012738 18 272 8.0 16.1 0.00 0.00 0.00 28 1008.1
20260504012236 18 117 1.6 6.4 0.00 0.00 0.00 28 1008.2